East Milton, MA

9:48 PM EDT on July 22, 2017 (GMT -0400)
East Milton

Weather History for KMQE - January, 2014

Change the Weather History Date:

Friday, January 24, 2014

  Actual Average (KOWD) Record (KOWD)
Temperature  
Mean Temperature 8 °F -  
Max Temperature 15 °F 31 °F 60 °F (1999)
Min Temperature 1 °F 14 °F -7 °F (2011)
Degree Days  
Heating Degree Days 57    
Moisture  
Dew Point -6 °F    
Average Humidity 53    
Maximum Humidity 66    
Minimum Humidity 37    
Precipitation  
Precipitation 0.00 in - - ()
Sea Level Pressure  
Sea Level Pressure 30.18 in    
Wind  
Wind Speed 14 mph (West)    
Max Wind Speed 21 mph    
Max Gust Speed 28 mph    
Averages and records for this station are not official NWS values.
T = Trace of Precipitation, MM = Missing Value Source: NWS Daily Summary

Daily Weather History Graph

Daily Weather History Graph

Search for Another Location

Airport or City:

Trip Planner

Search our weather history database for the weather conditions in past years. The results will help you decide how hot, cold, wet, or windy it might be!

Date:

Astronomy

Jan. 24, 2014 Rise Set
Actual Time 7:04 AM EST 4:48 PM EST
Civil Twilight 6:34 AM EST 5:18 PM EST
Nautical Twilight 6:00 AM EST 5:52 PM EST
Astronomical Twilight 5:27 AM EST 6:26 PM EST
Moon 12:27 AM EST (1/24) 11:06 AM EST (1/24)
Length of Visible Light 10h 44m
Length of Day
9h 43m
Last Quarter, 45% of the Moon is Illuminated
Jan 24
Last Quarter
Jan 30
New
Feb 6
First Quarter
Feb 14
Full
Feb 22
Last Quarter

Hourly Weather History & Observations

Time (EST) Temp. Windchill Dew Point Humidity Pressure Visibility Wind Dir Wind Speed Gust Speed Precip Events Conditions
12:54 AM 5.0 °F -11.6 °F -5.1 °F 63% 30.16 in - WSW 12.7 mph - N/A   Unknown
1:54 AM 5.0 °F -13.0 °F -4.0 °F 66% 30.16 in - West 15.0 mph - N/A   Unknown
2:54 AM 5.0 °F -13.6 °F -5.1 °F 63% 30.17 in - West 16.1 mph - N/A   Unknown
3:54 AM 3.9 °F -13.7 °F -6.0 °F 64% 30.17 in - West 13.8 mph - N/A   Unknown
4:54 AM 3.0 °F -14.8 °F -7.1 °F 63% 30.18 in - West 13.8 mph - N/A   Unknown
5:54 AM 1.9 °F -14.7 °F -7.1 °F 66% 30.21 in - West 11.5 mph - N/A   Unknown
6:54 AM 1.9 °F -15.5 °F -8.0 °F 63% 30.23 in - WNW 12.7 mph 20.7 mph N/A   Unknown
7:54 AM 3.0 °F -14.8 °F -7.1 °F 63% 30.25 in - WNW 13.8 mph - N/A   Unknown
9:54 AM 7.0 °F -8.3 °F -6.0 °F 55% 30.26 in - NW 11.5 mph 21.9 mph N/A   Unknown
10:54 AM 9.0 °F -9.5 °F -6.0 °F 51% 30.25 in - West 18.4 mph 23.0 mph N/A   Unknown
11:54 AM 10.9 °F -2.6 °F -6.0 °F 47% 30.22 in - WNW 10.4 mph 23.0 mph N/A   Unknown
12:54 PM 12.0 °F -5.1 °F -7.1 °F 42% 30.19 in - West 17.3 mph 24.2 mph N/A   Unknown
1:54 PM 14.0 °F -1.4 °F -5.1 °F 43% 30.19 in - WNW 15.0 mph 26.5 mph N/A   Unknown
2:54 PM 15.1 °F 0.5 °F -6.0 °F 39% 30.18 in - West 13.8 mph 20.7 mph N/A   Unknown
3:54 PM 14.0 °F 2.9 °F -8.0 °F 37% 30.19 in - West 8.1 mph - N/A   Unknown
4:54 PM 10.9 °F -3.4 °F -8.0 °F 42% 30.18 in - West 11.5 mph - N/A   Unknown
5:54 PM 10.0 °F -2.9 °F -8.0 °F 44% 30.19 in - WSW 9.2 mph - N/A   Unknown
6:54 PM 10.0 °F -4.5 °F -6.0 °F 48% 30.19 in - SW 11.5 mph - N/A   Unknown
7:54 PM 9.0 °F -6.6 °F -6.0 °F 51% 30.19 in - SSW 12.7 mph - N/A   Unknown
8:54 PM 10.0 °F -6.5 °F -5.1 °F 51% 30.17 in - SSW 15.0 mph - N/A   Unknown
9:54 PM 10.9 °F -4.1 °F -4.0 °F 51% 30.13 in - SSW 12.7 mph - N/A   Unknown
10:54 PM 10.9 °F -5.9 °F -2.9 °F 54% 30.11 in - South 16.1 mph - N/A   Unknown
11:54 PM 12.0 °F -6.5 °F -0.9 °F 56% 30.07 in - SSW 20.7 mph 27.6 mph N/A   Unknown